{"data":{"norad_id":63584,"epoch":"2026-09-20T18:57:59.333184Z","epoch_age_seconds":127453,"freshness":"FRESH","line1":"1 63584U 25076R   26263.79027006  .00015285  00000+0  56359-3 0  9997","line2":"2 63584  42.9998 299.4211 0001924 274.5640  85.4992 15.27593286 81678","mean_motion":15.27593286,"eccentricity":0.0001924,"inclination_deg":42.9998,"raan_deg":299.4211,"arg_perigee_deg":274.564,"mean_anomaly_deg":85.4992,"bstar":0.00056359,"rev_number":8167,"period_min":94.265928843576,"perigee_km":481.68922871371,"apogee_km":484.32939781505,"semimajor_km":6861.1463132644,"source":"CELESTRAK","updated_at":"2026-09-21T09:00:35.047801Z"}}